Overview Statistics Trail Chart Weather Telemetry Raw packets
 

This is the latest recevied weather packets stored in our database for station/object EA8EE-7. If no packets are shown the sender has not sent any weather packets the latest 10 day(s).

<< 23 24 25 26 27 28 29 >>
Time Temp. Humidity Pressure Rain* Wind** Luminosity Snow
1788253394 34.44° C 37% 1022.1 hPa - - - -
1788252794 34.44° C 37% 1022.7 hPa - - - -
1788252194 34.44° C 37% 1022.9 hPa - - - -
1788251282 35° C 36% 1022.3 hPa - - - -
1788250082 35.56° C 35% 1023.1 hPa - - - -
1788249482 35.56° C 35% 1024.6 hPa - - - -
1788248449 36.11° C 35% 1023.8 hPa - - - -
1788247849 35° C 36% 1027.4 hPa - - - -
1788247249 34.44° C 37% 1024.6 hPa - - - -
1788246648 34.44° C 37% 1025 hPa - - - -
1788245459 33.89° C 37% 1026.7 hPa - - - -
1788244859 33.89° C 37% 1025.7 hPa - - - -
1788242897 33.33° C 38% 1022.6 hPa - - - -
1788242297 33.33° C 38% 1021.7 hPa - - - -
1788240530 33.33° C 38% 1020.3 hPa - - - -
1788239930 33.33° C 38% 1020.3 hPa - - - -
1788238730 33.33° C 37% 1021.2 hPa - - - -
1788238130 33.89° C 37% 1022 hPa - - - -
1788236930 33.89° C 37% 1022 hPa - - - -
1788236330 33.89° C 36% 1021.5 hPa - - - -
1788235730 33.89° C 37% 1022 hPa - - - -
1788235130 33.89° C 36% 1022.3 hPa - - - -
1788234530 33.89° C 36% 1026 hPa - - - -
1788233330 33.89° C 35% 1023.4 hPa - - - -
1788232730 33.89° C 35% 1023.1 hPa - - - -

* Rain since midnight (hover to see other rain measurements)
** Current wind speed in m/s (hover to see current wind gust speed)